Location: Białystok
(53.1343°N, 23.1544°E)
Time: 13:01:05
(UTC+01:00)

ISS - Pass Details

Date: 01 February 2019
Orbit: 403 x 411 km, 51.6° (Epoch: 23 February)

Event Time Altitude Azimuth Distance (km) Brightness Sun altitude
Rises 18:54:59 0° 277° (W) 2,340 1.4 -24.6°
Reaches altitude 10° 18:57:06 10° 272° (W) 1,479 0.1 -24.9°
Enters shadow 18:59:01 30° 255° (WSW) 775 -1.9 -25.2°
